OneWeb SL0691

operational
NORAD ID: 61599 Int'l Des: 2024-188 Owner: ONEWEBE Country: UK Constellation: oneweb
LEOCIRCULARPOLARONEWEB_TYPE

OneWeb SL0691について

説明を読み込み中...

リアルタイム位置

3D地球を読み込み中...

次回通過

高度履歴

Altitude vs Time

uPlot chart will show altitude changes over time

軌道要素

1 61599U 24188F 25299.42256800 .00000551 00000-0 15192-2 0 9998
2 61599 87.8783 67.5191 0001200 92.6978 267.4287 13.11418679 53843
Epoch: Oct 26, 2025 • Age: 8 hours

現在のステータス

高度 1220.6 km
速度 7.25 km/s
衛星直下点 27.22°N, 62.65°W
打ち上げ日 Oct 20, 2024
運用期間 1 years
タイプ internet

技術仕様

分類 Payload
質量 148.00 kg
乾燥質量 140.00 kg
総質量 148.00 kg
長さ 1.30 m
直径 1.00 m
スパン 5.00 m
形状 Trapezoid+2 pan
製造者 ONEWUS
バスタイプ ARROW
フェーズステータス In Orbit
所有者/国 ONEWEBE/UK

大規模コンステレーション

Loading constellations...